Weather History for Jackson, MS

Change the Weather History Date:

Saturday, February 16, 2013

  Actual Average Record
Temperature  
Mean Temperature 38 °F 50 °F  
Max Temperature 48 °F 61 °F 84 °F (1927)
Min Temperature 28 °F 39 °F 18 °F (1991)
Degree Days  
Heating Degree Days 27 15  
Month to date heating degree days 236 272  
Since 1 July heating degree days 1562 1824  
Cooling Degree Days 0 0  
Month to date cooling degree days 0 0  
Year to date cooling degree days 14 4  
Moisture  
Dew Point 21 °F    
Average Humidity 48    
Maximum Humidity 69    
Minimum Humidity 26    
Precipitation  
Precipitation 0.00 in 0.17 in 2.00 in (1903)
Month to date precipitation 4.99 2.76  
Year to date precipitation 13.57 7.73  
Sea Level Pressure  
Sea Level Pressure 30.25 in    
Wind  
Wind Speed 10 mph (NNW)    
Max Wind Speed 20 mph    
Max Gust Speed 28 mph    
Visibility 10 miles    
Events      
T = Trace of Precipitation, MM = Missing Value Source: NWS Daily Summary

Daily Weather History Graph

Daily Weather History Graph

Search for Another Location

Airport:

Trip Planner

Search our weather history database for the weather conditions in past years. The results will help you decide how hot, cold, wet, or windy it might be!

Date:

Astronomy

Feb. 16, 2013 Rise Set
Actual Time 6:41 AM CST 5:47 PM CST
Civil Twilight 6:16 AM CST 6:12 PM CST
Nautical Twilight 5:47 AM CST 6:41 PM CST
Astronomical Twilight 5:19 AM CST 7:09 PM CST
Moon 10:19 AM CST (2/16) No Moon Set
Length of Visible Light 11h 55m
Length of Day
11h 05m
Waxing Crescent, 39% of the Moon is Illuminated
Feb 16
Waxing Crescent
Feb 17
First Quarter
Feb 25
Full
Mar 4
Last Quarter
Mar 11
New

Hourly Weather History & Observations

Time (CST) Temp. Windchill Dew Point Humidity Pressure Visibility Wind Dir Wind Speed Gust Speed Precip Events Conditions
12:54 AM 45.0 °F 39.3 °F 30.0 °F 56% 30.19 in 10.0 mi NNW 11.5 mph - N/A   Clear
1:54 AM 43.0 °F 37.7 °F 28.9 °F 58% 30.20 in 10.0 mi NNW 9.2 mph - N/A   Mostly Cloudy
2:54 AM 42.1 °F 38.4 °F 27.0 °F 55% 30.19 in 10.0 mi NW 5.8 mph - N/A   Scattered Clouds
3:54 AM 39.9 °F 33.9 °F 27.0 °F 60% 30.19 in 10.0 mi NNW 9.2 mph - N/A   Clear
4:54 AM 39.0 °F 32.8 °F 26.1 °F 60% 30.21 in 10.0 mi NNW 9.2 mph - N/A   Clear
5:54 AM 37.0 °F 30.4 °F 24.1 °F 59% 30.23 in 10.0 mi NW 9.2 mph - N/A   Clear
6:54 AM 36.0 °F 29.6 °F 21.9 °F 57% 30.24 in 10.0 mi NW 8.1 mph - N/A   Partly Cloudy
7:54 AM 37.9 °F 30.9 °F 21.0 °F 51% 30.26 in 10.0 mi NNW 10.4 mph - N/A   Partly Cloudy
8:54 AM 39.9 °F 32.5 °F 19.9 °F 45% 30.28 in 10.0 mi NNW 12.7 mph - N/A   Clear
9:54 AM 43.0 °F 37.2 °F 19.0 °F 38% 30.29 in 10.0 mi NNW 10.4 mph - N/A   Clear
10:54 AM 45.0 °F 39.3 °F 15.1 °F 30% 30.30 in 10.0 mi NW 11.5 mph - N/A   Clear
11:54 AM 46.0 °F 41.4 °F 15.1 °F 29% 30.28 in 10.0 mi NW 9.2 mph 20.7 mph N/A   Scattered Clouds
12:54 PM 46.9 °F - 16.0 °F 29% 30.25 in 10.0 mi NW 17.3 mph 24.2 mph N/A   Scattered Clouds
1:54 PM 46.9 °F - 15.1 °F 28% 30.24 in 10.0 mi NW 16.1 mph 26.5 mph N/A   Scattered Clouds
2:54 PM 48.0 °F - 15.1 °F 27% 30.23 in 10.0 mi WNW 12.7 mph 24.2 mph N/A   Scattered Clouds
3:54 PM 46.9 °F - 15.1 °F 28% 30.23 in 10.0 mi NW 13.8 mph 23.0 mph N/A   Partly Cloudy
4:54 PM 46.0 °F 40.6 °F 16.0 °F 30% 30.22 in 10.0 mi WNW 11.5 mph 19.6 mph N/A   Partly Cloudy
5:54 PM 43.0 °F 37.2 °F 19.0 °F 38% 30.23 in 10.0 mi NNW 10.4 mph - N/A   Clear
6:54 PM 39.9 °F 33.4 °F 21.9 °F 49% 30.26 in 10.0 mi North 10.4 mph - N/A   Clear
7:54 PM 37.9 °F 30.9 °F 25.0 °F 60% 30.28 in 10.0 mi North 10.4 mph - N/A   Clear
8:54 PM 36.0 °F 31.1 °F 24.1 °F 62% 30.29 in 10.0 mi North 5.8 mph - N/A   Clear
9:54 PM 34.0 °F 29.8 °F 24.1 °F 67% 30.30 in 10.0 mi ENE 4.6 mph - N/A   Clear
10:54 PM 33.1 °F 30.0 °F 23.0 °F 66% 30.30 in 10.0 mi ENE 3.5 mph - N/A   Clear
11:54 PM 28.0 °F - 23.0 °F 81% 30.30 in 10.0 mi Calm Calm - N/A   Clear